Wind_Speed
5 4 4 5 3 4 5 6 6 6 5 5 3 3 2 1 2 3 2 1 4 6 6 6 6 8 9 10 12 13 14 14 15 15 14 13 12 10 9 8 6 4 3 2 2 2 2 3 4
4 2 3 4 3 6 5 5 5 5 5 4 3 3 3 2 2 3 3 3 2 3 5 5 5 6 7 9 10 11 12 13 14 14 15 15 14 13 11 10 9 7 5 4 3 3 2 2 4
3 2 3 3 4 5 5 4 4 4 4 4 4 3 3 2 2 3 3 4 3 1 3 4 4 5 6 7 8 9 10 11 12 13 14 14 15 15 14 13 12 10 8 6 5 4 3 2 2
2 2 4 4 6 5 5 5 4 4 3 3 3 3 2 3 3 3 3 4 5 3 1 2 3 3 4 5 6 7 8 9 9 10 11 13 14 14 15 14 13 12 10 8 6 5 5 3 1
1 2 3 5 5 5 5 4 3 3 2 3 3 3 2 3 3 3 3 4 5 5 4 2 2 2 2 3 4 5 5 6 6 7 8 10 11 12 13 14 14 13 11 9 8 7 5 5 3
2 1 2 3 3 3 3 2 2 1 2 2 3 3 3 3 4 3 3 3 4 6 6 4 3 2 2 2 2 3 3 3 3 4 5 6 8 10 12 12 13 13 12 10 9 7 6 5 4
4 3 3 2 2 2 2 1 1 1 1 2 3 4 4 4 4 4 3 2 3 5 7 7 5 4 3 3 3 2 2 2 1 1 2 4 5 7 8 10 11 11 11 10 9 7 6 5 4
7 6 6 5 5 4 4 4 3 3 2 3 4 5 4 5 5 5 4 3 2 4 6 7 7 7 6 5 5 4 4 4 3 2 2 2 3 4 5 6 8 9 9 9 8 7 6 5 4
10 9 8 8 8 7 8 8 7 7 7 7 7 6 5 5 6 6 5 5 4 3 5 6 8 9 10 9 8 7 7 6 6 5 4 3 3 4 4 4 5 6 7 7 7 7 6 4 3
13 13 10 11 15 13 13 13 12 11 12 11 10 8 8 7 7 7 7 6 6 5 5 6 8 10 12 13 12 11 10 10 9 8 7 6 5 5 5 5 4 4 4 5 5 6 6 5 3
17 17 14 17 18 17 18 17 17 17 16 14 14 13 11 11 11 9 9 8 8 8 8 8 9 11 12 14 14 14 14 14 13 13 12 10 9 9 9 8 7 5 5 4 4 4 4 5 4
18 20 20 21 19 20 21 21 22 20 18 18 18 18 17 16 15 13 12 11 10 10 10 11 12 13 13 14 15 16 16 16 16 16 15 14 13 12 11 12 11 9 8 6 6 5 5 5 5
20 22 22 22 23 24 24 25 26 24 21 21 21 22 22 20 19 17 15 14 13 12 12 13 13 14 15 15 16 16 17 17 18 18 18 18 17 15 15 14 15 13 12 11 9 7 7 7 7
21 22 23 24 26 27 27 28 30 28 25 25 25 25 25 23 22 21 19 18 16 15 15 15 15 16 16 17 17 17 17 18 18 19 20 20 19 19 18 18 18 17 16 15 13 12 11 10 10
22 24 25 27 30 31 30 32 34 31 29 29 29 29 28 27 25 25 24 22 21 20 18 18 18 18 18 18 19 19 19 19 19 20 21 21 21 22 22 21 21 21 19 18 16 15 15 14 14
25 26 27 29 32 34 34 37 37 34 33 33 32 32 31 30 30 29 28 26 25 25 24 22 21 21 21 20 20 21 22 21 21 21 22 22 23 24 24 24 24 24 23 22 20 19 18 17 17
26 27 28 31 32 36 36 38 39 38 37 36 36 35 35 35 35 33 31 30 29 29 28 27 25 24 24 23 23 23 23 23 23 23 23 24 24 24 24 25 26 26 25 25 24 23 22 21 20
27 29 31 32 34 33 31 34 40 41 40 40 41 40 40 40 39 37 35 34 34 33 32 31 30 28 27 27 27 27 27 26 26 26 26 26 26 26 26 26 28 28 29 29 28 27 26 24 23
30 32 33 35 40 43 44 44 45 46 44 42 44 44 44 44 42 41 39 38 37 36 35 34 34 32 31 30 30 31 32 30 29 28 27 28 28 28 29 29 30 31 31 32 31 30 28 26 24
32 34 36 38 40 44 46 45 45 47 46 45 44 45 45 44 43 42 40 39 38 38 37 36 35 34 34 33 33 35 36 35 32 30 29 29 30 29 30 30 31 32 32 33 33 32 29 27 25
30 34 37 38 39 41 42 43 40 40 43 44 43 43 43 41 40 39 37 37 37 36 36 36 35 34 34 34 35 37 37 36 35 33 31 31 32 32 31 32 33 33 33 33 34 32 29 28 26
26 30 32 33 35 36 37 38 32 33 37 40 40 39 36 35 35 34 34 33 33 33 33 33 32 33 33 34 35 37 39 39 38 38 37 36 35 35 35 35 35 34 33 33 33 33 31 29 27
26 28 30 31 33 33 31 31 30 33 37 36 35 34 32 31 31 30 30 30 30 30 30 30 30 31 32 34 35 37 40 40 40 41 41 40 39 38 38 37 37 35 34 33 33 33 33 31 29
28 28 29 29 26 23 21 22 28 34 37 36 33 32 31 30 30 30 30 30 30 30 30 30 31 32 33 35 37 38 39 42 44 45 44 42 41 41 39 37 36 36 33 34 34 35 35 32 29
26 27 27 22 17 16 18 20 29 33 36 38 37 36 34 32 32 31 31 32 32 32 32 33 33 35 36 38 39 40 40 42 44 45 45 43 42 40 38 35 35 35 35 35 36 37 36 33 29
24 25 24 21 17 13 15 17 21 26 31 34 35 35 34 34 33 32 32 32 32 33 34 35 36 38 39 40 41 41 41 41 43 43 43 41 40 38 37 36 35 36 36 36 36 37 36 32 28
24 23 22 18 15 11 12 14 16 20 22 25 27 27 28 28 28 28 29 30 30 31 32 34 35 37 37 37 37 37 37 38 39 39 39 39 38 38 37 37 36 36 37 37 37 36 34 30 27
24 23 21 17 15 11 11 13 15 15 16 17 18 20 21 21 21 22 23 24 25 26 28 30 30 31 30 30 31 31 31 33 34 35 35 35 36 36 36 36 36 36 35 33 31 30 27 24 24
23 23 21 18 16 14 13 14 15 13 11 7 7 10 12 14 14 15 15 16 17 18 20 22 23 23 23 24 25 26 27 27 29 30 31 33 32 31 31 29 28 26 25 24 22 20 19 20 22
24 23 21 20 18 17 16 15 14 12 9 6 4 3 5 7 7 6 6 6 7 9 10 12 13 15 17 17 17 17 18 18 18 19 19 17 16 15 15 15 15 15 15 15 16 16 17 19 21
Wind_Direction
87 98 122 129 142 152 95 78 59 37 26 20 9 345 335 344 252 239 258 141 92 87 97 112 115 108 99 89 82 80 78 74 71 67 63 58 55 52 47 45 45 48 45 31 10 343 307 277 258
81 85 124 139 149 122 103 84 58 36 16 3 352 345 349 340 289 249 241 208 141 90 89 104 116 116 108 98 90 85 81 77 73 69 64 59 55 53 49 44 42 42 43 40 30 13 340 292 260
83 81 97 135 105 106 103 89 70 39 18 355 332 339 1 353 318 272 240 224 216 166 92 94 107 117 115 106 97 90 85 81 77 70 65 60 56 52 50 47 44 41 40 39 36 30 20 346 261
96 93 88 93 88 98 100 86 74 46 21 1 340 328 344 348 332 301 253 229 225 222 185 107 105 118 122 116 106 98 90 83 77 69 64 59 55 51 49 48 46 44 41 39 36 31 31 31 46
149 115 107 95 94 96 92 80 71 52 38 12 355 347 337 340 336 318 280 236 226 227 226 194 146 143 146 139 127 115 102 90 78 66 59 54 51 48 46 45 46 46 43 40 39 37 38 39 51
190 157 84 103 113 114 106 90 71 48 42 15 357 356 353 341 335 327 303 256 229 227 233 226 210 200 200 189 168 149 130 110 88 66 48 43 41 40 41 42 44 46 46 44 41 41 44 48 57
189 180 132 163 211 182 160 156 218 273 348 353 340 343 360 352 343 335 323 295 240 227 233 238 234 233 234 231 227 211 189 170 155 72 22 19 20 24 30 37 42 44 45 45 43 43 44 50 58
203 201 196 205 220 229 229 234 243 258 268 284 300 316 338 346 342 337 335 326 278 236 236 244 247 248 249 247 243 239 231 220 223 243 270 321 341 353 8 22 35 40 42 42 41 40 42 46 51
215 215 217 222 234 236 242 245 247 252 256 259 269 286 304 317 326 328 328 328 312 272 252 251 251 251 252 253 250 246 243 240 241 246 253 269 290 307 328 351 9 25 32 34 34 32 31 33 39
225 224 230 232 241 238 245 248 251 251 252 258 264 268 280 289 298 306 310 311 310 299 281 271 265 259 255 255 255 251 246 245 245 248 252 259 262 274 289 301 319 344 360 11 17 21 21 17 8
237 236 236 241 246 245 248 250 251 253 256 263 268 268 271 275 279 284 289 292 294 292 287 282 278 273 266 262 261 258 253 248 246 247 249 253 255 262 275 279 282 293 309 322 333 341 352 358 353
249 249 248 251 253 253 253 254 255 256 260 264 270 272 269 268 270 272 275 278 281 286 285 284 282 282 280 275 269 267 263 256 250 250 251 253 255 259 265 270 271 272 279 285 295 304 307 315 320
255 256 257 259 259 258 257 258 259 258 260 262 266 269 269 267 268 269 272 273 275 278 282 285 287 286 286 283 278 275 272 267 261 257 256 255 257 260 261 262 265 266 269 271 273 281 287 290 293
266 268 268 265 264 263 261 262 262 260 261 263 264 265 266 268 269 269 270 272 274 277 280 284 288 290 289 288 286 282 277 274 270 265 264 262 261 261 263 263 263 263 263 267 270 271 274 278 284
271 270 269 269 268 267 267 266 264 266 264 264 264 265 267 268 269 270 270 272 274 276 278 281 284 287 288 287 286 284 280 277 275 272 270 267 266 266 266 266 266 264 263 263 268 272 274 274 277
272 272 273 272 273 272 270 268 266 266 266 266 265 265 266 267 267 268 271 274 276 279 280 279 280 282 283 284 284 284 283 280 277 275 273 272 271 270 270 270 268 266 263 262 264 269 274 275 273
272 272 271 270 270 272 270 266 267 267 267 267 266 266 267 266 267 268 271 273 275 276 278 278 278 278 279 280 280 280 279 279 277 276 275 274 274 273 273 272 269 265 262 260 263 268 272 274 272
278 274 272 273 269 268 263 270 274 271 268 268 268 268 267 267 268 268 270 271 273 274 275 276 277 276 276 276 277 277 275 275 276 277 277 276 275 273 274 273 269 265 261 259 261 267 271 272 271
285 281 276 272 270 269 273 276 275 273 271 269 268 268 267 268 268 269 269 269 270 271 272 273 275 275 275 275 275 275 274 273 275 276 277 277 277 275 275 273 271 267 261 257 259 264 267 268 269
288 285 280 276 273 273 274 275 274 274 273 271 270 269 268 268 267 267 267 267 267 268 270 272 273 274 275 275 274 273 272 272 273 275 277 276 277 277 280 278 279 273 266 258 256 259 263 265 264
297 290 287 285 282 278 276 274 275 275 274 271 269 268 268 267 266 265 263 262 263 264 265 267 269 271 273 274 275 273 272 273 274 274 275 276 277 277 278 281 284 279 272 265 259 256 260 261 260
309 303 300 295 287 280 273 270 269 266 266 270 271 269 267 265 263 261 259 258 258 260 261 263 266 270 273 275 275 274 277 276 274 274 275 276 278 279 280 283 285 282 275 269 263 258 258 257 256
315 313 308 303 296 285 274 264 258 254 256 259 260 261 261 258 256 255 253 253 253 254 256 260 264 269 273 276 277 276 276 273 272 273 275 276 279 281 282 284 285 284 277 271 264 258 255 254 254
319 318 317 314 307 295 279 257 250 247 249 248 255 258 258 255 253 253 252 252 253 255 257 260 265 269 274 276 277 275 273 272 272 274 276 276 279 281 284 284 285 283 275 269 262 256 253 251 252
327 327 329 329 314 294 277 255 250 251 250 250 255 258 258 257 256 255 254 253 254 257 259 263 267 270 274 276 276 274 271 270 270 272 274 277 280 282 285 285 286 282 273 267 262 255 251 249 250
340 339 340 338 330 302 282 269 260 256 254 252 254 256 259 261 259 256 254 254 256 259 262 265 268 271 273 274 274 273 270 268 267 270 274 278 283 286 286 285 285 281 273 264 260 253 248 245 247
349 350 349 345 343 331 307 293 286 279 274 260 256 259 259 257 255 254 254 254 257 260 264 267 269 271 273 274 274 272 269 267 268 269 274 277 280 282 282 280 278 275 269 261 254 248 243 242 247
358 358 356 354 355 349 324 309 304 304 296 283 272 261 254 251 251 252 255 258 261 263 266 267 269 270 271 271 271 270 268 268 267 269 271 272 274 274 274 272 269 266 259 253 247 241 239 245 253
5 5 4 5 5 359 348 337 333 329 326 312 276 256 243 243 247 252 258 262 266 270 270 271 271 270 270 269 269 269 268 267 266 266 267 267 266 265 263 260 255 248 243 239 236 238 246 253 259
12 13 16 20 18 13 8 1 358 359 358 358 341 271 224 223 234 246 249 256 265 270 278 280 273 269 268 268 268 266 265 263 260 259 259 256 249 243 238 236 235 234 236 238 243 249 253 258 262
Height
5906 5906 5906 5907 5908 5908 5907 5908 5908 5907 5907 5907 5906 5906 5906 5907 5908 5911 5909 5908 5909 5908 5908 5908 5908 5908 5908 5908 5907 5907 5906 5905 5904 5903 5903 5901 5900 5900 5899 5898 5898 5897 5897 5897 5897 5897 5897 5898 5898
5907 5907 5908 5908 5908 5907 5909 5909 5909 5909 5908 5908 5907 5907 5907 5907 5908 5908 5908 5909 5909 5909 5909 5909 5909 5909 5909 5909 5909 5908 5908 5907 5906 5906 5905 5904 5902 5901 5900 5899 5898 5898 5898 5898 5897 5897 5897 5897 5898
5908 5908 5909 5908 5907 5909 5910 5910 5910 5910 5909 5908 5908 5908 5908 5908 5908 5908 5908 5909 5910 5910 5910 5910 5910 5910 5910 5910 5910 5909 5909 5909 5908 5908 5907 5906 5904 5903 5902 5900 5900 5899 5898 5898 5898 5897 5897 5897 5897
5909 5910 5910 5909 5909 5910 5910 5910 5910 5911 5910 5910 5909 5909 5908 5908 5909 5908 5908 5909 5910 5910 5910 5911 5911 5911 5911 5911 5911 5910 5910 5910 5910 5910 5909 5908 5906 5905 5904 5902 5901 5900 5899 5898 5898 5898 5897 5897 5897
5910 5910 5911 5910 5910 5911 5911 5911 5911 5911 5911 5910 5910 5909 5909 5909 5909 5908 5908 5909 5909 5910 5910 5911 5911 5911 5911 5911 5911 5911 5911 5911 5911 5911 5910 5910 5908 5907 5906 5904 5903 5901 5900 5899 5899 5898 5898 5897 5897
5911 5911 5911 5910 5911 5912 5912 5912 5912 5912 5911 5910 5910 5910 5909 5909 5909 5909 5908 5908 5909 5910 5910 5910 5911 5911 5911 5912 5912 5912 5912 5912 5912 5912 5911 5911 5910 5909 5908 5906 5905 5903 5902 5901 5900 5899 5899 5898 5898
5912 5912 5911 5910 5911 5912 5913 5913 5913 5913 5912 5912 5911 5911 5910 5910 5910 5909 5909 5909 5909 5909 5910 5910 5910 5911 5911 5912 5912 5912 5912 5912 5912 5912 5912 5912 5911 5910 5909 5908 5907 5905 5904 5902 5901 5900 5900 5899 5899
5910 5912 5911 5911 5911 5912 5912 5913 5913 5913 5913 5912 5911 5911 5911 5911 5910 5910 5909 5909 5909 5909 5909 5910 5910 5910 5911 5911 5912 5912 5912 5912 5912 5912 5912 5912 5912 5911 5910 5909 5908 5907 5905 5904 5903 5902 5901 5900 5899
5909 5911 5909 5910 5910 5910 5911 5911 5912 5912 5912 5911 5911 5911 5911 5911 5910 5910 5910 5909 5909 5909 5909 5909 5909 5910 5910 5910 5911 5911 5911 5912 5911 5911 5911 5911 5911 5911 5910 5910 5909 5908 5907 5905 5904 5903 5902 5901 5900
5908 5909 5909 5909 5909 5909 5909 5909 5910 5910 5909 5910 5910 5910 5910 5910 5910 5909 5909 5909 5909 5908 5908 5908 5908 5908 5909 5909 5909 5910 5910 5910 5910 5910 5910 5911 5911 5910 5910 5910 5909 5908 5907 5906 5905 5904 5903 5902 5901
5905 5906 5907 5907 5907 5907 5907 5907 5907 5907 5907 5908 5908 5908 5908 5908 5908 5908 5908 5908 5907 5907 5907 5907 5907 5907 5907 5907 5907 5907 5908 5908 5908 5909 5909 5909 5909 5909 5909 5908 5908 5908 5907 5906 5905 5904 5904 5903 5902
5903 5903 5904 5904 5905 5905 5905 5904 5904 5904 5906 5906 5906 5905 5905 5906 5905 5905 5905 5906 5906 5905 5905 5905 5905 5905 5905 5905 5904 5905 5905 5905 5906 5906 5907 5907 5907 5908 5908 5907 5907 5907 5906 5905 5905 5904 5903 5903 5902
5899 5899 5900 5901 5901 5902 5902 5901 5901 5902 5903 5903 5902 5902 5901 5902 5902 5902 5902 5902 5903 5903 5903 5903 5903 5903 5902 5902 5901 5902 5902 5902 5903 5903 5904 5904 5904 5905 5905 5905 5905 5905 5904 5904 5904 5903 5903 5902 5901
5896 5896 5897 5897 5897 5897 5897 5897 5896 5897 5899 5898 5898 5898 5898 5898 5899 5898 5899 5898 5899 5899 5900 5900 5900 5900 5900 5899 5898 5899 5899 5899 5899 5900 5900 5900 5901 5901 5902 5902 5902 5902 5902 5901 5901 5901 5901 5900 5900
5893 5893 5893 5892 5892 5891 5892 5891 5890 5893 5894 5893 5893 5893 5894 5894 5894 5894 5894 5894 5895 5895 5896 5897 5896 5896 5896 5896 5896 5895 5895 5895 5896 5896 5896 5897 5897 5897 5897 5898 5898 5898 5898 5898 5898 5898 5898 5898 5898
5888 5888 5888 5887 5886 5886 5888 5884 5884 5886 5887 5887 5887 5887 5888 5889 5889 5889 5889 5890 5891 5891 5891 5892 5893 5892 5892 5892 5892 5892 5891 5892 5892 5892 5892 5892 5892 5892 5893 5893 5894 5894 5894 5894 5894 5894 5895 5895 5895
5883 5883 5882 5881 5879 5879 5879 5876 5876 5878 5879 5879 5880 5880 5881 5881 5882 5883 5884 5885 5885 5885 5886 5886 5888 5888 5887 5887 5887 5887 5887 5887 5887 5887 5887 5887 5887 5887 5888 5888 5888 5889 5889 5889 5889 5890 5890 5890 5891
5878 5876 5876 5874 5872 5870 5869 5867 5867 5868 5871 5871 5871 5872 5872 5873 5874 5876 5878 5878 5879 5879 5880 5880 5881 5882 5882 5882 5882 5882 5881 5882 5882 5883 5882 5882 5882 5882 5882 5882 5882 5882 5883 5884 5884 5884 5885 5885 5886
5870 5869 5868 5867 5864 5862 5861 5861 5858 5857 5860 5862 5861 5862 5862 5864 5866 5868 5870 5870 5871 5871 5872 5873 5874 5875 5875 5876 5876 5875 5875 5875 5876 5876 5877 5876 5876 5876 5876 5875 5875 5875 5876 5877 5878 5878 5879 5879 5880
5863 5860 5858 5857 5855 5853 5852 5852 5850 5847 5848 5850 5851 5851 5852 5855 5856 5858 5860 5861 5863 5863 5864 5865 5866 5866 5868 5868 5868 5867 5866 5867 5868 5869 5870 5870 5869 5869 5869 5869 5868 5867 5868 5869 5870 5871 5872 5873 5873
5854 5850 5847 5845 5844 5842 5841 5841 5841 5837 5836 5837 5839 5840 5842 5844 5846 5848 5850 5852 5853 5854 5855 5856 5857 5858 5859 5859 5859 5857 5856 5858 5859 5860 5861 5862 5862 5861 5861 5861 5860 5860 5860 5860 5862 5863 5864 5866 5867
5847 5841 5838 5834 5831 5831 5831 5829 5832 5828 5825 5825 5827 5829 5831 5834 5836 5838 5840 5842 5844 5846 5847 5848 5849 5850 5850 5850 5850 5848 5847 5847 5849 5850 5851 5853 5853 5853 5853 5852 5852 5852 5852 5853 5854 5856 5857 5858 5859
5840 5835 5830 5824 5819 5817 5818 5819 5821 5819 5816 5817 5817 5818 5821 5824 5826 5829 5831 5833 5835 5837 5839 5840 5841 5842 5842 5843 5842 5841 5841 5839 5839 5840 5840 5841 5842 5843 5844 5844 5844 5844 5844 5845 5846 5848 5850 5851 5852
5834 5829 5823 5816 5810 5808 5808 5810 5810 5808 5807 5808 5808 5808 5811 5814 5817 5820 5823 5825 5827 5829 5831 5832 5833 5834 5834 5834 5834 5834 5833 5832 5831 5831 5830 5830 5832 5833 5834 5834 5835 5835 5836 5838 5839 5840 5841 5843 5845
5829 5823 5817 5810 5806 5804 5802 5801 5801 5799 5799 5801 5800 5801 5803 5806 5809 5812 5814 5816 5818 5821 5822 5824 5824 5825 5825 5825 5824 5824 5824 5824 5823 5823 5823 5823 5823 5824 5825 5825 5826 5827 5828 5829 5830 5831 5833 5835 5836
5825 5819 5813 5808 5803 5800 5798 5796 5796 5793 5792 5793 5793 5794 5796 5798 5801 5803 5805 5807 5809 5811 5813 5814 5814 5815 5815 5815 5814 5814 5814 5814 5814 5814 5814 5815 5816 5816 5817 5817 5817 5817 5818 5820 5821 5823 5825 5826 5828
5823 5817 5811 5806 5801 5798 5796 5793 5791 5789 5787 5786 5786 5788 5790 5791 5793 5795 5797 5799 5801 5802 5803 5804 5804 5804 5804 5804 5803 5803 5803 5804 5805 5805 5806 5807 5807 5808 5807 5808 5808 5808 5809 5811 5812 5814 5816 5818 5820
5822 5816 5811 5806 5801 5798 5796 5792 5790 5786 5784 5782 5782 5783 5784 5786 5787 5789 5791 5792 5793 5794 5794 5794 5794 5794 5794 5794 5794 5794 5795 5795 5796 5797 5798 5799 5799 5799 5798 5798 5799 5800 5801 5803 5805 5807 5809 5811 5814
5823 5817 5811 5806 5801 5798 5795 5794 5788 5784 5782 5780 5780 5780 5781 5783 5784 5786 5787 5787 5788 5788 5788 5787 5787 5787 5787 5787 5787 5787 5787 5787 5788 5789 5790 5790 5790 5791 5791 5791 5792 5793 5795 5797 5799 5801 5803 5806 5808
5823 5817 5812 5808 5803 5799 5796 5796 5788 5785 5782 5780 5779 5780 5781 5782 5783 5784 5784 5784 5784 5784 5784 5783 5782 5782 5782 5782 5782 5782 5782 5782 5782 5783 5783 5784 5784 5784 5786 5787 5788 5790 5791 5793 5795 5797 5799 5800 5802